Bryce Canyon, UT

3:34 PM MDT on October 18, 2019 (GMT -0600)
Bryce Canyon

Weather History for KBCE - August, 2019

Change the Weather History Date:

Monday, August 5, 2019

  Actual Average Record
Temperature  
Mean Temperature 65 °F -  
Max Temperature 84 °F 79 °F 89 °F (1979)
Min Temperature 48 °F 45 °F 31 °F (1976)
Growing Degree Days 15 (Base 50)    
Moisture  
Dew Point 48 °F    
Average Humidity 52    
Maximum Humidity 90    
Minimum Humidity 25    
Precipitation  
Precipitation 0.00 in - - ()
Sea Level Pressure  
Sea Level Pressure 30.18 in    
Wind  
Wind Speed 4 mph (SW)    
Max Wind Speed 13 mph    
Max Gust Speed 18 mph    
Visibility 10 miles    
Events Rain , Thunderstorm    
Averages and records for this station are not official NWS values.
T = Trace of Precipitation, MM = Missing Value Source: NWS Daily Summary

Daily Weather History Graph

Daily Weather History Graph

Search for Another Location

Airport or City:

Astronomy

Aug. 05, 2019 Rise Set
Actual Time 6:35 AM MDT 8:33 PM MDT
Civil Twilight 6:06 AM MDT 9:01 PM MDT
Nautical Twilight 5:31 AM MDT 9:36 PM MDT
Astronomical Twilight 4:54 AM MDT 10:14 PM MDT
Moon 11:50 AM MDT (8/5) 11:53 PM MDT (8/5)
Length of Visible Light 14h 55m
Length of Day
13h 57m
Waxing Crescent, 28% of the Moon is Illuminated
Aug 5
Waxing Crescent
Aug 7
First Quarter
Aug 15
Full
Aug 23
Last Quarter
Aug 30
New

Hourly Weather History & Observations

Time (MDT) Temp. Dew Point Humidity Pressure Visibility Wind Dir Wind Speed Gust Speed Precip Events Conditions
12:53 AM 54.0 °F 48.9 °F 83% 30.05 in 10.0 mi Calm Calm - N/A   Clear
1:53 AM 53.1 °F 46.9 °F 80% 30.08 in 10.0 mi Calm Calm - N/A   Clear
2:53 AM 51.1 °F 46.9 °F 86% 30.07 in 10.0 mi WNW 4.6 mph - N/A   Clear
3:53 AM 50.0 °F 46.0 °F 86% 30.06 in 10.0 mi West 5.8 mph - N/A   Clear
4:53 AM 50.0 °F 46.0 °F 86% 30.04 in 10.0 mi West 4.6 mph - N/A   Clear
5:53 AM 48.9 °F 46.0 °F 90% 30.07 in 10.0 mi West 4.6 mph - N/A   Clear
6:53 AM 50.0 °F 46.0 °F 86% 30.10 in 10.0 mi West 8.1 mph - N/A   Clear
7:53 AM 55.9 °F 48.9 °F 77% 30.09 in 10.0 mi West 4.6 mph - N/A   Clear
8:53 AM 64.0 °F 52.0 °F 65% 30.09 in 10.0 mi Calm Calm - N/A   Clear
9:53 AM 73.0 °F 48.0 °F 41% 30.08 in 10.0 mi Calm Calm - N/A   Clear
10:53 AM 75.9 °F 48.9 °F 38% 30.07 in 10.0 mi South 4.6 mph - N/A   Clear
11:53 AM 79.0 °F 46.0 °F 31% 30.07 in 10.0 mi Calm Calm - N/A   Clear
12:53 PM 75.9 °F 50.0 °F 40% 30.07 in 10.0 mi South 5.8 mph - N/A   Scattered Clouds
1:38 PM 73.9 °F 46.0 °F 37% 30.43 in 10.0 mi South 8.1 mph - N/A Thunderstorm Partly Cloudy
1:46 PM 75.0 °F 46.9 °F 37% 30.42 in 10.0 mi SSE 8.1 mph - N/A Thunderstorm Thunderstorm
1:53 PM 73.9 °F 48.9 °F 41% 30.07 in 10.0 mi South 5.8 mph - N/A Thunderstorm Thunderstorm
2:15 PM 75.0 °F 44.1 °F 33% 30.43 in 10.0 mi West 8.1 mph - N/A Thunderstorm Mostly Cloudy
2:34 PM 77.0 °F 44.1 °F 31% 30.42 in 10.0 mi WNW 3.5 mph - N/A   Scattered Clouds
2:53 PM 82.0 °F 44.1 °F 26% 30.03 in 10.0 mi Variable 5.8 mph - N/A   Clear
3:53 PM 81.0 °F 44.1 °F 27% 30.02 in 10.0 mi Variable 4.6 mph - N/A   Partly Cloudy
4:53 PM 81.0 °F 42.1 °F 25% 29.99 in 10.0 mi Variable 3.5 mph - N/A   Clear
5:53 PM 81.0 °F 42.1 °F 25% 29.98 in 10.0 mi South 5.8 mph - N/A   Clear
6:53 PM 77.0 °F 50.0 °F 39% 29.98 in 10.0 mi South 4.6 mph - N/A   Scattered Clouds
7:11 PM 75.9 °F 52.0 °F 43% 30.34 in 10.0 mi South 8.1 mph - N/A Thunderstorm Clear
7:39 PM 75.0 °F 46.9 °F 37% 30.35 in 10.0 mi South 12.7 mph 18.4 mph N/A   Mostly Cloudy
7:49 PM 73.4 °F 48.2 °F 41% 30.36 in 10.0 mi SSE 4.6 mph - N/A Thunderstorm Thunderstorm
7:53 PM 73.9 °F 48.0 °F 40% 30.00 in 10.0 mi Variable 4.6 mph - N/A Thunderstorm Thunderstorm
8:29 PM 70.0 °F 48.0 °F 46% 30.37 in 10.0 mi NE 6.9 mph - N/A Thunderstorm Mostly Cloudy
8:36 PM 69.1 °F 48.9 °F 49% 30.36 in 10.0 mi East 8.1 mph - N/A Thunderstorm Thunderstorm
8:51 PM 66.2 °F 51.8 °F 60% 30.37 in 10.0 mi Calm Calm - N/A Thunderstorm Mostly Cloudy
8:53 PM 66.9 °F 52.0 °F 59% 30.00 in 10.0 mi Calm Calm - N/A Thunderstorm Overcast
9:08 PM 66.0 °F 52.0 °F 60% 30.38 in 10.0 mi North 4.6 mph - N/A Thunderstorm Thunderstorm
9:47 PM 68.0 °F 48.2 °F 49% 30.40 in 10.0 mi North 8.1 mph - 0.00 in   Overcast
9:48 PM 68.0 °F 48.9 °F 50% 30.00 in 10.0 mi North 8.1 mph - 0.00 in   Overcast
10:00 PM 66.9 °F 48.9 °F 52% 30.42 in 10.0 mi NNW 9.2 mph - N/A Thunderstorm Thunderstorm
10:21 PM 66.0 °F 50.0 °F 56% 30.44 in 10.0 mi SW 5.8 mph - N/A Thunderstorm Overcast
10:34 PM 66.0 °F 50.0 °F 56% 30.44 in 10.0 mi NE 3.5 mph - N/A   Overcast
10:53 PM 66.0 °F 48.9 °F 54% 30.04 in 10.0 mi ESE 12.7 mph 17.3 mph 0.00 in Rain Light Rain
11:53 PM 63.0 °F 50.0 °F 63% 30.01 in 10.0 mi Calm Calm - 0.00 in   Mostly Cloudy